Location: Dover
(48.8500°N, 53.9833°W)
Time: 06:38:43
(UTC+00:00)

SL-4 R/B - Pass Details

Date: 14 November 2025
Orbit: 386 x 525 km, 51.6° (Epoch: 12 December)

Event Time Altitude Azimuth Distance (km) Brightness Sun altitude
Rises 20:30:18 0° 289° (WNW) 2,352 6.1 -5.9°
Reaches altitude 10° 20:32:27 10° 280° (W) 1,509 5.3 -6.2°
Maximum altitude 20:35:33 34° 213° (SSW) 731 3.3 -6.7°
Drops below altitude 10° 20:38:48 10° 147° (SSE) 1,576 4.2 -7.2°
Sets 20:41:06 0° 138° (SE) 2,475 5.1 -7.6°
